Temperature
4 4 3 3 3 3 3 3 3 4 4 6 6 6 6 7 7 7 7 7 6 6 6 5 5 5 5 4 4 4 3 3 3 2 2 2 2 2 2 2 2 2 2 2
3 4 3 3 3 4 4 4 4 4 5 6 6 6 6 6 6 6 6 6 6 6 5 5 5 4 4 4 3 3 3 2 2 2 2 2 2 2 2 2 2 2 2 2
3 3 3 3 4 4 3 3 4 4 5 5 5 5 5 6 6 6 6 6 6 5 5 5 4 4 4 3 3 3 2 2 2 2 2 2 2 1 1 1 1 1 1 1
2 2 3 5 5 5 4 4 4 4 5 5 5 6 6 6 6 6 6 5 5 5 5 4 4 3 3 3 3 2 2 2 2 1 1 1 1 1 1 1 1 1 1 1
2 2 3 4 4 4 4 4 4 4 4 4 5 4 4 6 6 5 5 5 5 4 4 4 3 3 3 2 2 2 2 1 1 1 1 1 1 1 1 1 1 1 1 1
2 2 3 5 5 5 4 4 4 4 4 3 3 2 3 5 5 5 5 4 4 4 4 3 3 2 2 2 2 2 1 1 1 1 1 0 0 0 0 0 0 1 1 0
2 2 3 4 3 4 4 4 4 4 4 3 2 3 4 4 4 4 4 4 3 3 3 3 2 2 2 1 1 1 1 1 1 0 0 0 0 0 -0 -0 -0 0 0 0
1 2 3 3 2 3 3 4 4 4 4 4 4 4 4 4 3 3 3 3 3 3 2 2 2 1 1 1 1 1 1 0 0 0 0 -0 -0 -0 -0 -0 -1 -1 -1 -0
1 3 3 3 3 4 4 4 4 4 4 4 3 3 3 3 3 2 2 2 2 2 2 2 1 1 0 0 0 0 -0 -0 -0 -0 -0 -1 -1 -1 -1 -1 -1 -1 -1 -1
0 1 2 3 4 4 4 4 4 4 3 3 2 2 2 2 2 2 2 2 2 1 1 1 1 0 0 -0 -0 -0 -1 -0 -1 -1 -1 -1 -1 -1 -1 -1 -2 -2 -2 -2
0 1 1 2 3 3 3 3 3 3 3 2 2 2 2 1 1 1 1 1 1 1 1 0 0 0 -0 -0 -1 -1 -1 -1 -1 -1 -1 -1 -1 -2 -2 -2 -2 -2 -2 -2
1 1 1 2 3 3 3 2 2 2 2 2 2 1 1 1 1 1 1 1 1 0 0 -0 -0 -0 -1 -1 -1 -1 -1 -2 -2 -2 -2 -2 -2 -2 -2 -2 -2 -2 -2 -2
2 2 2 2 2 2 2 2 2 2 1 1 1 1 1 1 0 0 -0 -0 -0 -0 -1 -1 -1 -1 -1 -1 -2 -2 -2 -2 -2 -2 -3 -3 -3 -3 -3 -2 -2 -2 -2 -2
2 2 1 1 1 1 1 1 1 1 1 1 0 0 0 -0 -0 -1 -1 -1 -1 -1 -1 -1 -1 -1 -2 -2 -2 -2 -2 -2 -3 -3 -3 -3 -3 -3 -3 -3 -3 -3 -2 -2
1 1 1 1 0 0 0 0 0 0 0 -0 -0 -1 -1 -1 -1 -1 -1 -2 -2 -2 -2 -2 -2 -2 -2 -2 -2 -2 -3 -3 -3 -3 -3 -3 -3 -3 -3 -3 -3 -3 -3 -2
0 0 0 -0 -0 -1 -1 -1 -1 -1 -1 -1 -1 -1 -2 -2 -2 -2 -2 -2 -2 -3 -2 -2 -2 -2 -2 -2 -3 -3 -3 -3 -3 -3 -3 -3 -3 -3 -3 -3 -3 -3 -3 -3
-1 -1 -1 -1 -1 -1 -1 -1 -1 -2 -2 -2 -2 -2 -2 -2 -2 -2 -3 -3 -3 -3 -3 -3 -3 -3 -3 -3 -3 -3 -3 -3 -3 -3 -3 -3 -3 -3 -3 -3 -3 -3 -3 -3
-1 -1 -1 -1 -2 -2 -2 -2 -2 -2 -2 -3 -3 -3 -3 -3 -3 -3 -3 -3 -3 -3 -3 -3 -3 -3 -3 -3 -3 -3 -4 -4 -4 -3 -3 -3 -3 -3 -3 -3 -3 -3 -3 -3
-2 -2 -2 -2 -2 -3 -3 -3 -3 -3 -3 -3 -3 -4 -4 -4 -4 -4 -4 -4 -4 -4 -3 -4 -4 -4 -4 -4 -4 -4 -4 -4 -4 -4 -4 -4 -4 -4 -4 -3 -3 -3 -3 -3
-3 -3 -3 -3 -3 -3 -3 -3 -3 -3 -4 -4 -4 -4 -4 -4 -4 -4 -4 -4 -5 -5 -4 -4 -4 -4 -4 -4 -4 -4 -4 -4 -4 -4 -4 -4 -4 -4 -4 -4 -4 -4 -3 -3
-3 -3 -3 -4 -4 -4 -4 -4 -4 -4 -4 -4 -5 -5 -5 -5 -5 -5 -5 -5 -5 -5 -5 -5 -5 -5 -5 -5 -5 -5 -5 -5 -5 -5 -5 -4 -4 -4 -4 -4 -4 -4 -4 -3
-4 -4 -4 -4 -4 -5 -5 -5 -5 -5 -5 -5 -5 -5 -5 -5 -5 -5 -5 -5 -5 -5 -5 -5 -5 -5 -5 -5 -5 -5 -5 -5 -5 -5 -5 -5 -5 -5 -4 -4 -4 -4 -4 -4
-5 -5 -5 -5 -5 -5 -5 -5 -5 -5 -6 -6 -6 -6 -6 -6 -6 -6 -6 -6 -6 -6 -6 -6 -6 -6 -6 -6 -5 -5 -5 -5 -5 -5 -5 -5 -5 -5 -5 -4 -4 -4 -4 -4
-6 -6 -6 -6 -6 -6 -6 -6 -6 -6 -6 -6 -6 -6 -6 -7 -6 -6 -7 -6 -6 -6 -6 -6 -6 -6 -6 -6 -6 -6 -5 -5 -5 -5 -5 -5 -5 -5 -5 -5 -4 -4 -4 -4
-6 -6 -6 -6 -6 -6 -6 -6 -6 -6 -6 -6 -6 -6 -7 -7 -7 -7 -7 -7 -7 -6 -6 -6 -6 -6 -6 -6 -6 -6 -6 -6 -6 -6 -5 -5 -5 -5 -5 -5 -5 -4 -4 -4
-7 -7 -7 -7 -7 -7 -7 -7 -7 -7 -7 -7 -7 -7 -7 -7 -7 -7 -7 -7 -7 -7 -7 -7 -6 -6 -6 -6 -6 -6 -6 -6 -6 -6 -6 -6 -5 -5 -5 -5 -5 -4 -4 -4
-7 -7 -7 -7 -7 -8 -8 -8 -8 -8 -8 -8 -8 -8 -8 -8 -8 -8 -8 -7 -7 -7 -7 -7 -7 -7 -7 -7 -7 -7 -7 -7 -7 -6 -6 -6 -6 -5 -5 -5 -5 -5 -4 -4
Wind_Speed
5 4 5 7 9 12 12 12 11 11 13 15 11 8 7 6 6 6 6 6 5 5 5 5 5 5 4 5 5 5 5 6 7 8 8 7 8 8 8 8 9 8 9 8
4 5 6 7 11 14 15 13 14 15 16 13 9 6 7 7 7 8 8 7 6 5 5 5 5 5 5 5 5 5 5 6 7 7 7 7 8 8 8 8 8 8 8 8
4 3 2 9 13 15 10 10 12 17 16 8 7 8 9 9 8 8 7 6 6 6 5 5 5 5 5 6 5 5 5 6 7 7 8 8 9 8 8 8 8 8 8 7
2 2 9 10 6 11 13 13 14 12 10 8 9 8 7 7 7 7 6 6 6 5 5 5 5 5 5 5 5 5 6 7 7 7 8 8 8 8 8 8 7 7 7 7
4 6 9 9 5 8 10 10 11 14 13 10 5 3 6 6 5 6 6 5 5 5 5 4 4 4 4 5 5 5 6 7 7 7 8 8 8 8 7 7 7 7 7 7
5 5 8 8 4 3 4 7 6 8 9 6 2 3 7 4 3 3 4 3 4 3 3 4 4 3 3 5 5 6 7 7 7 7 7 8 8 8 6 6 7 7 7 6
8 8 9 6 2 4 5 7 3 4 6 4 5 7 5 2 2 2 3 4 3 3 3 4 4 2 3 4 5 6 6 7 7 7 7 7 7 6 6 7 7 7 7 7
6 8 9 2 4 6 6 3 2 2 3 3 3 3 2 2 2 3 4 4 4 3 4 4 2 2 4 5 6 6 6 6 7 7 7 7 7 7 6 6 6 6 6 7
7 7 3 4 5 5 3 3 2 1 2 1 1 2 3 3 3 3 4 4 4 3 4 4 3 2 4 6 6 6 6 7 7 8 7 6 6 7 6 5 5 5 5 6
4 7 6 5 3 2 1 2 2 1 1 1 2 3 4 4 4 4 4 4 4 3 4 5 5 4 4 5 6 5 6 7 6 7 7 6 5 5 5 5 5 5 5 5
6 7 5 4 4 4 2 1 2 2 2 2 2 3 4 4 4 4 4 4 4 3 4 5 5 5 5 5 5 5 6 6 6 6 6 6 6 5 5 5 5 6 5 5
8 6 5 5 3 3 3 3 4 3 3 2 3 4 4 4 4 4 4 4 4 4 4 5 5 6 6 5 5 5 6 6 5 5 5 5 5 6 8 8 10 10 9 8
6 4 4 4 3 3 3 4 3 2 3 2 3 2 3 4 4 4 4 4 4 5 5 5 5 6 6 6 5 5 6 6 5 5 5 5 5 6 7 9 9 9 9 9
4 2 3 4 4 2 1 1 1 1 1 1 2 2 2 3 4 4 4 5 4 4 5 5 6 6 6 6 6 6 6 6 6 5 5 5 5 5 5 6 7 7 8 9
5 4 5 3 2 1 1 0 0 1 2 2 2 2 2 3 4 4 4 4 4 5 6 6 6 7 6 6 6 6 5 5 5 4 4 5 5 5 5 6 6 6 6 7
2 1 2 2 2 1 1 0 1 2 2 2 2 3 3 3 3 4 4 4 4 5 6 7 7 8 7 6 6 5 5 8 7 5 4 4 4 4 5 5 5 5 5 6
2 2 2 2 1 1 1 1 1 1 1 2 3 3 3 3 4 5 5 5 4 5 6 6 8 8 7 6 5 5 5 6 8 6 4 4 4 4 4 5 5 5 5 6
3 3 3 3 2 1 0 1 1 1 1 2 2 2 2 3 4 5 6 6 6 6 6 6 7 7 7 6 5 4 4 4 4 4 4 4 4 4 4 4 4 5 5 5
1 1 1 1 1 1 0 0 1 1 2 2 2 2 2 3 3 4 5 5 6 7 8 7 11 8 7 7 7 4 4 4 4 4 4 6 6 5 4 4 4 4 4 4
2 2 2 2 2 1 1 1 1 1 2 2 2 3 3 4 4 4 5 4 4 5 7 8 8 6 6 6 8 4 4 5 5 5 5 4 4 5 5 5 5 4 4 3
4 4 4 4 3 3 2 2 2 2 3 3 2 2 3 4 5 4 4 5 6 7 7 9 6 6 6 7 8 4 4 5 5 5 5 5 5 5 5 5 5 4 4 3
3 4 4 3 4 3 3 3 2 2 3 3 3 3 4 5 5 5 4 4 6 10 8 5 5 8 9 9 5 5 5 5 5 5 4 4 4 4 4 5 5 4 4 3
3 3 4 3 3 2 3 3 3 2 2 3 3 3 4 4 4 4 6 5 6 10 8 6 9 12 12 7 5 5 5 5 5 5 5 4 4 4 4 4 4 4 4 3
4 4 4 3 3 3 4 4 4 3 3 3 4 4 4 4 4 4 4 9 11 11 7 9 12 12 11 6 5 5 5 5 5 5 5 4 4 4 4 4 4 4 3 3
4 3 3 3 3 2 2 3 4 4 4 4 4 5 4 3 4 5 6 7 10 10 7 9 12 12 8 5 5 5 5 5 5 5 4 4 4 4 4 3 3 3 3 2
3 2 2 2 1 1 2 2 2 3 3 4 5 5 5 5 5 5 5 6 7 9 7 6 7 8 6 5 5 5 5 5 6 5 5 4 4 4 4 3 4 3 3 2
3 2 2 3 3 3 2 2 2 3 3 3 5 5 5 5 5 5 6 6 6 6 6 6 6 5 5 5 5 5 5 5 5 5 4 4 4 4 4 4 3 3 2 1
Wind_Direction
240 228 185 207 212 198 205 209 216 239 244 259 259 257 260 261 267 269 273 276 273 271 274 280 285 290 289 291 293 293 295 294 290 290 290 287 287 287 287 284 283 280 281 278
251 227 221 245 235 217 221 224 236 255 264 257 258 257 259 258 257 262 269 272 273 275 278 278 278 284 289 292 294 293 292 292 292 296 299 297 294 292 291 289 286 284 281 279
242 239 265 253 225 210 211 213 212 236 248 258 260 251 248 251 253 257 265 269 270 272 268 268 272 275 280 286 294 295 293 296 298 299 300 299 301 301 297 293 288 287 282 277
214 161 232 243 209 201 217 232 222 238 254 250 248 255 253 239 231 252 260 267 272 271 269 272 268 273 284 290 292 291 295 298 299 300 300 302 304 304 301 297 292 288 284 280
195 227 264 279 237 192 204 249 232 237 254 256 259 298 286 259 239 245 259 268 270 267 270 277 277 279 290 294 295 294 295 296 297 298 301 304 305 305 306 305 301 294 293 290
198 214 236 247 240 183 147 262 250 228 246 249 167 246 270 283 288 280 289 288 284 285 295 290 290 288 292 292 295 294 293 294 297 298 300 302 302 302 304 304 300 303 301 296
217 228 252 262 258 127 178 249 285 234 236 217 201 225 248 285 317 313 310 303 307 308 301 288 290 292 298 302 295 291 296 300 302 302 300 299 302 304 308 307 307 307 305 304
200 222 244 231 130 181 228 273 281 268 251 232 233 251 274 295 310 322 322 324 329 329 315 312 318 317 303 299 298 304 307 306 305 306 307 312 308 307 308 309 308 310 311 312
199 222 256 189 207 234 225 227 234 241 267 218 261 274 289 294 300 307 309 315 321 317 316 320 324 322 302 300 303 307 312 311 311 313 313 313 309 310 313 312 307 310 315 317
243 261 267 255 244 268 240 229 247 204 194 194 259 282 294 295 300 305 307 306 313 317 318 317 318 313 295 299 307 310 313 314 315 318 319 321 320 317 315 313 309 307 310 312
242 261 283 276 240 237 252 222 239 257 248 235 241 271 279 287 293 296 302 307 310 308 310 310 316 316 315 315 320 318 315 314 316 316 315 324 327 322 316 308 298 299 301 303
234 226 215 247 244 224 219 232 230 235 270 273 243 256 274 286 293 299 305 309 316 315 312 313 317 318 320 320 320 316 316 315 314 314 315 318 323 328 329 322 318 312 310 307
232 238 232 247 255 244 227 237 241 223 230 268 286 269 280 290 300 309 313 317 316 314 315 317 320 319 320 323 321 313 309 310 312 313 314 317 322 323 324 330 332 328 323 321
230 232 262 260 257 268 240 250 266 303 293 287 293 305 305 303 309 312 307 306 312 321 325 326 323 318 321 325 324 317 312 310 311 309 312 316 317 315 314 318 324 327 330 331
256 233 229 242 256 278 256 220 27 329 332 333 327 318 310 306 305 305 311 323 335 338 332 330 326 320 325 327 322 316 315 314 311 310 312 313 315 316 316 315 315 316 322 328
263 228 194 201 231 261 263 188 224 289 306 306 318 316 309 305 309 321 331 338 338 328 323 324 320 319 325 324 323 321 319 318 321 318 316 318 319 318 317 317 317 317 320 321
189 227 228 221 234 255 266 252 233 262 311 321 316 319 332 346 349 344 337 333 321 311 314 314 313 319 324 322 320 317 317 321 324 323 320 316 316 313 310 310 310 312 314 320
199 204 200 192 194 203 303 345 357 354 322 310 330 355 2 356 334 325 325 330 333 330 326 320 318 324 325 325 321 314 316 319 322 319 318 321 320 317 314 311 312 312 315 325
116 144 142 135 150 157 185 335 359 346 348 5 10 354 336 327 320 319 325 335 336 327 323 323 325 329 324 324 326 316 318 318 321 321 319 318 320 321 319 317 314 314 318 323
68 82 88 83 68 86 97 62 42 29 16 18 15 3 349 335 330 328 327 320 307 296 303 313 317 318 317 321 326 320 318 317 317 317 317 317 318 319 320 319 316 316 321 324
60 71 77 76 63 54 58 63 62 33 9 14 15 347 328 325 328 330 329 322 316 318 318 320 324 320 319 322 323 322 320 317 314 312 312 313 315 317 319 320 321 322 323 326
59 68 70 74 75 52 29 36 44 32 15 6 1 350 340 334 331 326 309 298 306 321 327 321 320 323 328 325 325 325 321 318 314 310 308 310 311 313 316 319 318 319 322 329
62 63 61 58 61 48 29 30 31 27 11 354 344 334 324 316 316 317 315 318 319 322 326 318 323 327 329 331 331 329 325 321 316 311 308 306 304 305 308 312 314 316 320 325
62 57 51 47 54 55 33 9 7 6 357 342 334 326 320 320 321 314 302 315 325 325 323 323 329 333 334 337 331 327 322 318 315 312 309 308 307 307 307 307 310 313 317 321
60 57 54 50 45 31 11 0 3 1 359 350 340 336 331 319 308 311 312 315 322 327 325 328 333 336 338 331 327 323 319 315 315 314 312 310 309 307 305 305 306 308 311 313
50 47 32 17 6 350 344 350 350 344 347 346 339 337 334 330 323 318 318 320 321 326 329 326 327 330 329 324 321 320 317 316 317 318 313 310 310 308 305 306 308 307 308 308
42 38 34 23 9 356 347 345 343 337 335 332 327 327 328 329 329 329 327 326 326 325 325 326 328 327 324 322 322 322 319 316 314 312 310 309 307 304 304 303 306 307 310 314
Height
1453 1452 1456 1456 1457 1460 1462 1460 1460 1448 1444 1432 1430 1430 1429 1428 1427 1426 1425 1423 1421 1420 1418 1416 1414 1412 1410 1407 1405 1402 1399 1396 1393 1390 1386 1383 1380 1377 1374 1372 1369 1367 1365 1363
1453 1451 1452 1452 1449 1450 1451 1450 1448 1443 1436 1426 1426 1427 1425 1424 1424 1422 1420 1419 1417 1416 1414 1412 1411 1408 1406 1403 1401 1398 1395 1392 1389 1385 1382 1378 1375 1372 1369 1366 1364 1362 1360 1357
1453 1450 1450 1448 1437 1439 1441 1438 1437 1435 1425 1422 1423 1422 1420 1420 1419 1418 1416 1415 1413 1412 1411 1409 1407 1404 1402 1399 1396 1393 1391 1388 1385 1381 1377 1374 1371 1367 1364 1361 1359 1356 1354 1352
1453 1453 1447 1427 1422 1425 1427 1425 1426 1422 1418 1417 1417 1416 1415 1415 1415 1413 1412 1411 1409 1408 1406 1404 1402 1400 1397 1395 1392 1389 1386 1383 1380 1377 1373 1370 1366 1363 1360 1357 1354 1351 1349 1347
1451 1449 1439 1426 1420 1420 1424 1421 1417 1416 1414 1413 1414 1414 1411 1411 1410 1410 1408 1407 1405 1404 1402 1399 1397 1395 1393 1390 1388 1385 1382 1379 1376 1373 1369 1365 1362 1359 1356 1352 1350 1347 1344 1342
1444 1442 1434 1418 1414 1413 1418 1420 1411 1411 1410 1410 1412 1415 1409 1406 1406 1405 1404 1403 1401 1399 1397 1395 1393 1391 1388 1386 1383 1381 1378 1375 1372 1369 1365 1362 1358 1355 1352 1349 1346 1343 1340 1337
1436 1435 1426 1415 1413 1413 1422 1415 1408 1407 1406 1407 1408 1408 1406 1405 1404 1403 1401 1400 1398 1395 1393 1391 1389 1387 1384 1382 1379 1377 1374 1371 1368 1365 1362 1358 1354 1351 1348 1345 1341 1338 1335 1333
1431 1430 1422 1411 1412 1415 1411 1407 1406 1404 1404 1404 1404 1403 1403 1403 1402 1400 1399 1397 1394 1392 1389 1388 1386 1383 1380 1378 1376 1373 1370 1367 1364 1361 1358 1354 1350 1347 1344 1341 1337 1334 1331 1328
1419 1415 1409 1407 1406 1406 1405 1405 1404 1403 1403 1403 1402 1402 1401 1401 1399 1398 1396 1394 1392 1389 1387 1385 1383 1380 1377 1375 1373 1370 1367 1364 1361 1357 1354 1351 1347 1343 1340 1337 1334 1331 1328 1325
1415 1409 1405 1404 1403 1403 1403 1403 1402 1402 1402 1401 1401 1400 1399 1398 1397 1395 1393 1391 1389 1387 1384 1381 1380 1377 1375 1372 1370 1366 1363 1360 1357 1353 1350 1346 1343 1340 1337 1334 1331 1329 1326 1324
1410 1405 1403 1401 1401 1401 1401 1400 1400 1400 1400 1400 1399 1398 1398 1396 1394 1392 1390 1388 1386 1383 1381 1378 1376 1374 1372 1369 1366 1363 1359 1356 1353 1350 1346 1343 1340 1337 1334 1332 1330 1327 1325 1322
1402 1399 1400 1398 1398 1398 1398 1398 1398 1398 1397 1397 1397 1396 1395 1393 1392 1390 1388 1385 1383 1380 1378 1375 1373 1371 1368 1366 1363 1360 1356 1353 1350 1347 1343 1340 1337 1334 1332 1330 1327 1325 1323 1321
1395 1395 1396 1395 1395 1395 1395 1394 1395 1395 1395 1394 1394 1393 1392 1390 1388 1387 1384 1382 1379 1377 1374 1372 1370 1367 1365 1363 1360 1357 1353 1350 1347 1344 1341 1338 1335 1331 1328 1325 1324 1322 1320 1317
1392 1392 1392 1392 1392 1392 1392 1392 1392 1392 1392 1392 1391 1390 1388 1387 1385 1383 1381 1379 1377 1374 1371 1369 1367 1364 1362 1359 1356 1353 1350 1347 1344 1341 1339 1336 1333 1330 1327 1324 1320 1317 1316 1315
1388 1389 1389 1389 1389 1389 1389 1389 1389 1389 1388 1388 1388 1386 1385 1383 1382 1380 1378 1376 1373 1371 1369 1366 1363 1361 1359 1357 1354 1351 1348 1345 1342 1339 1336 1334 1331 1329 1326 1323 1320 1317 1314 1312
1385 1385 1385 1385 1385 1386 1386 1386 1386 1385 1385 1385 1384 1383 1382 1380 1379 1377 1375 1373 1371 1368 1366 1363 1361 1359 1356 1354 1351 1348 1345 1343 1340 1337 1334 1332 1329 1327 1324 1322 1319 1316 1314 1312
1382 1382 1382 1382 1382 1383 1383 1383 1383 1383 1382 1382 1381 1380 1379 1377 1376 1374 1372 1371 1369 1366 1364 1361 1359 1356 1354 1351 1349 1346 1343 1340 1338 1335 1333 1330 1328 1325 1323 1321 1318 1316 1314 1313
1379 1379 1379 1380 1380 1380 1380 1381 1381 1381 1380 1379 1378 1377 1376 1375 1373 1371 1370 1368 1366 1364 1362 1359 1357 1354 1351 1349 1346 1344 1341 1338 1336 1334 1331 1328 1326 1324 1322 1319 1317 1315 1313 1312
1376 1377 1377 1378 1379 1379 1379 1379 1379 1378 1378 1377 1376 1375 1374 1373 1371 1370 1368 1366 1363 1361 1359 1357 1354 1352 1349 1347 1344 1342 1339 1337 1334 1332 1329 1327 1325 1322 1320 1318 1316 1315 1313 1312
1375 1375 1376 1376 1377 1377 1377 1377 1376 1376 1376 1375 1374 1373 1372 1371 1369 1368 1366 1364 1362 1359 1357 1354 1352 1349 1347 1344 1342 1339 1337 1335 1332 1330 1327 1325 1323 1321 1319 1317 1315 1314 1313 1312
1374 1374 1375 1375 1375 1375 1375 1375 1375 1374 1374 1373 1372 1371 1370 1368 1367 1365 1363 1361 1360 1357 1355 1352 1349 1347 1344 1342 1340 1337 1335 1333 1331 1328 1326 1324 1322 1320 1318 1316 1315 1314 1313 1312
1374 1374 1374 1374 1374 1374 1375 1374 1374 1373 1373 1372 1371 1370 1368 1367 1365 1363 1361 1360 1357 1355 1352 1349 1347 1345 1342 1340 1337 1335 1333 1331 1329 1327 1325 1323 1321 1319 1317 1316 1315 1314 1313 1312
1375 1374 1374 1374 1374 1374 1374 1374 1373 1373 1372 1371 1370 1368 1367 1365 1363 1361 1358 1357 1355 1352 1350 1347 1345 1342 1340 1337 1335 1333 1330 1328 1326 1325 1323 1321 1319 1318 1316 1315 1314 1313 1312 1312
1375 1375 1375 1375 1374 1374 1373 1373 1373 1372 1371 1370 1369 1367 1365 1363 1361 1360 1357 1355 1352 1350 1347 1345 1342 1340 1338 1335 1332 1330 1328 1326 1324 1322 1321 1319 1318 1316 1315 1314 1313 1312 1312 1312
1376 1376 1375 1375 1374 1374 1373 1373 1372 1371 1370 1368 1367 1365 1364 1362 1359 1357 1355 1352 1350 1348 1345 1342 1340 1338 1335 1332 1330 1328 1326 1324 1322 1320 1319 1317 1316 1315 1314 1313 1312 1311 1311 1311
1376 1376 1376 1376 1375 1374 1373 1372 1371 1370 1368 1367 1365 1363 1362 1359 1357 1355 1352 1350 1348 1345 1343 1340 1337 1335 1332 1330 1328 1326 1323 1321 1320 1318 1317 1316 1314 1313 1312 1312 1311 1311 1310 1310
1377 1376 1376 1376 1375 1375 1373 1372 1371 1369 1367 1365 1363 1361 1359 1357 1355 1352 1350 1348 1345 1343 1340 1338 1335 1333 1330 1328 1326 1323 1321 1319 1318 1316 1315 1314 1313 1312 1311 1311 1310 1310 1310 1310